www.pogodaiklimat.ru

Погода и климат >> Архив погоды >> Россия >> Краснодарский край >> Белореченск


ПОГОДА в Белореченске

  • Прогноз погоды в Белореченске
  • Монитор погоды в Белореченске

АРХИВ ПОГОДЫ в Белореченске

Время (UTC), дата Ветер
(напр.,м/с)
 
Видим.   Явления Облачность Т
(С)
Тd
(С)
f
(%)
Тe
(С)
Тes
(С)
Комфортность P
(гПа)
Po
(гПа)
Тmin
(С)
Tmax
(С)
R
(мм)
R24
(мм)
S
(см)
21 18.05 В 2 10 км 5/0
[Ac trans Ci fib]
+19.9 +12.9 64 +22 +22 комфорт 1004.6 989.2
00 19.05 СВ 1 10 км 3/0
[Ac trans Ci fib]
+17.4 +13.1 76 +18 +18 1004.3 988.7
03 19.05 З 2 20 км 10/5 1000 м
[Sc Ac cast Cs]
+17.7 +14.0 79 +18 +18 1006.0 990.4 +16.8
06 19.05 СЗ 2 20 км 9/8 600 м
[Cb cap Ac trans]
+19.2 +14.6 75 +21 +23 комфорт 1007.4 991.9
09 19.05 СЗ 2 20 км {ливн. осадки} 9/3 1000 м
[Sc diur, vesp Ac trans Ci fib]
+24.8 +15.7 57 +28 +35 жарко 1008.6 993.4
12 19.05 З 3 10 км гроза, ливневой дождь 10/9 600 м
[Cb cap Ac As]
+20.5 +17.5 83 +24 +25 комфорт 1011.0 995.5
15 19.05 З 1 10 км слаб. ливневой дождь {гроза} 10/8 600 м
[Cb cap Ac As]
+20.2 +17.8 86 +25 +25 комфорт 1012.0 996.5 +24.8 0.5
18 19.05 штиль 0 10 км {гроза, ливн. осадки} 8/0
[Ac trans Ci fib]
+17.9 +16.8 93 +18 +18 1011.9 996.3
21 19.05 З 1 10 км 8/0
[Ac trans]
+17.6 +16.6 94 +19 +19 1012.1 996.5
00 20.05 ЮЗ 1 10 км 10/8 600 м
[Sc diur, vesp Ac As]
+17.4 +16.3 93 +18 +18 1013.2 997.5
03 20.05 З 1 10 км 10/10 600 м
[Sc diur, vesp]
+17.3 +15.5 89 +18 +18 1013.6 997.9 +16.6 0.1
06 20.05 З 1 10 км в посл. час гроза {ливн. осадки} 10/10 300 м
[Cb cap]
+17.8 +16.3 91 +19 +19 1015.0 999.3
09 20.05 З 1 4000 м гроза, ливневой дождь 10/10 300 м
[Cb cap]
+16.1 +15.2 94 +17 +17 1016.8 1001.0
12 20.05 В 4 10 км {гроза, ливн. осадки} 9/8 600 м
[Cb cap Ac lent Ci sp]
+19.8 +15.6 77 +22 +23 комфорт 1016.4 1000.8
15 20.05 ЮВ 2 20 км {ливн. осадки} 4/0
[Ci sp]
+20.7 +14.1 66 +24 +26 комфорт 1015.7 1000.2 +21.3 28
18 20.05 С 1 10 км {ливн. осадки} 8/0
[Ac lent Ci fib]
+16.5 +15.2 92 +17 +17 1016.4 1000.6
21 20.05 СВ 1 10 км 4/0
[Ci fib]
+14.2 +13.3 94 +14 +14 1016.7 1000.8
00 21.05 ЮВ 1 10 км ясно +13.1 +12.2 94 +13 +13 1016.1 1000.2
03 21.05 ЮЗ 1 10 км ясно +13.6 +12.7 94 +14 +15 1016.6 1000.7 +12.0
06 21.05 В 2 20 км ясно +20.3 +13.6 65 +23 +33 комфорт 1016.8 1001.2
09 21.05 В 4 20 км 1/1 1000 м
[Cu hum]
+25.4 +13.6 48 +28 +39 жарко 1016.2 1000.9
12 21.05 В 4 20 км 4/1 1000 м
[Cu hum Ci fib]
+26.7 +12.4 41 +28 +35 жарко 1015.3 1000.0
15 21.05 В 2 20 км 9/3 1000 м
[Sc diur, vesp Cs]
+26.0 +12.3 43 +28 +29 жарко 1014.7 999.4 +27.0
18 21.05 С 3 10 км 10/0
[Ac As]
+20.0 +14.4 70 +22 +22 комфорт 1014.0 998.4
21 21.05 ЮВ 2 10 км {ливн. осадки} 9/4 1000 м
[Sc diur, vesp Ac As]
+18.1 +15.4 84 +19 +19 1013.4 997.8
00 22.05 штиль 0 10 км 10/0
[Ac und]
+16.9 +15.2 90 +17 +17 1013.4 997.7
03 22.05 штиль 0 4000 м дымка 10/0
[Ac As]
+16.6 +15.6 94 +16 +17 1013.2 997.5 +16.3 0.0
06 22.05 В 3 10 км гроза, ливневой дождь 10/10 300 м
[Cb cap]
+18.1 +16.1 88 +18 +18 1014.3 998.6
09 22.05 З 2 20 км {гроза, ливн. осадки} 10/8 600 м
[Cb cap Ac As]
+19.6 +14.8 74 +22 +23 комфорт 1013.7 998.1
12 22.05 С 3
{11}
10 км гроза, ливневой дождь 9/9 300 м
[Cb cap]
+21.0 +16.3 75 +25 +26 комфорт 1013.5 998.0
15 22.05 ЮЗ 3
{10}
20 км {гроза, ливн. осадки} 5/4 1000 м
[Cu med, cong Ci ing]
+22.9 +13.4 55 +26 +27 жарко 1013.1 997.7 +23.8 3
18 22.05 ЮЗ 2 10 км {гроза, ливн. осадки} 1/1 1000 м
[Sc diur, vesp]
+18.2 +12.9 71 +19 +19 1013.5 997.8
21 22.05 СВ 1 10 км ясно +13.0 +11.7 92 +13 +13 1013.6 997.6
00 23.05 Ю 3 10 км 8/6 600 м
[Sc Ac trans]
+16.5 +11.3 71 +16 +16 1012.9 997.2
03 23.05 В 1 10 км 3/1 1000 м
[Sc Ac cast]
+14.3 +12.1 87 +15 +15 1013.6 997.7 +13.0
06 23.05 Ю 3 20 км 4/0
[Ac cast Ci sp]
+21.4 +12.6 57 +24 +31 комфорт 1012.4 996.9
09 23.05 ЮЗ 4-10
{10}
20 км 9/8 1000 м
[Cu med, cong Ac lent Cc]
+23.9 +10.3 42 +25 +27 комфорт 1011.6 996.3
12 23.05 ЮЗ 6-12
{14}
20 км 8/5 1000 м
[Cu med, cong Ac lent Ci fib]
+23.7 +8.9 39 +24 +26 комфорт 1011.5 996.2
15 23.05 ЮЗ 4
{13}
20 км 5/3 1000 м
[Cu med, cong Ac lent]
+22.5 +10.6 47 +24 +25 комфорт 1011.2 995.8 +24.2
18 23.05 ЮЗ 2 10 км 3/0
[Ci fib]
+18.1 +12.0 68 +19 +19 1012.2 996.5
21 23.05 Ю 2 10 км 3/0
[Ci fib]
+16.5 +10.9 69 +17 +17 1011.7 996.0
00 24.05 штиль 0 10 км 8/0
[Ac lent]
+13.2 +11.3 88 +13 +13 1011.3 995.4
03 24.05 В 1 10 км ясно +13.3 +10.9 85 +13 +14 1011.4 995.5 +11.6
06 24.05 СВ 2 20 км 1/0
[Ci fib]
+21.1 +12.5 58 +23 +33 комфорт 1011.0 995.5
09 24.05 С 1 20 км 8/3 1000 м
[Cu med, cong Ac trans Ci]
+25.1 +11.5 43 +27 +36 жарко 1010.3 995.0
12 24.05 СВ 2 20 км 6/5 1000 м
[Sc diur, vesp Ac trans Ci fib]
+26.3 +10.9 38 +27 +33 жарко 1009.4 994.2
15 24.05 В 3 20 км 4/1 1000 м
[Sc diur, vesp Ac As Ci fib]
+25.8 +10.3 38 +27 +28 жарко 1008.6 993.4 +27.3
18 24.05 В 1 10 км 10/4 1000 м
[Sc diur, vesp Ac As]
+21.3 +12.1 56 +23 +23 комфорт 1008.2 992.8
21 24.05 СВ 2 10 км 9/0
[Ac trans]
+19.1 +12.5 66 +21 +21 комфорт 1008.2 992.7
00 25.05 ЮВ 1 10 км 4/0
[Ci fib]
+16.9 +13.6 81 +18 +18 1007.4 991.8
03 25.05 Ю 1 20 км 1/0
[Ac lent]
+15.9 +13.0 83 +17 +18 1006.6 990.9 +14.5
06 25.05 З 2 10 км слаб. ливневой дождь 10/9 300 м
[Cb cap Ac As]
+18.5 +15.1 81 +20 +20 1006.7 991.2
09 25.05 ЮЗ 5-10
{10}
10 км слаб. ливневой дождь 10/10 300 м
[Cb cap]
+18.1 +16.8 92 +18 +18 1009.8 994.2
12 25.05 СЗ 3
{10}
20 км {ливн. осадки} 9/8 600 м
[Cb cap Ac cast Ci sp]
+21.4 +16.3 73 +25 +27 комфорт 1007.0 991.6
15 25.05 ЮЗ 3
{14}
20 км {гроза, ливн. осадки} 10/3 1000 м
[Sc diur, vesp Ac cast Cs]
+18.2 +14.9 81 +19 +19 1009.9 994.3 +21.5 12

 

Местоположение метеостанции Белореченск (Краснодарский край, Россия): широта 44.75 долгота 39.90 высота над уровнем моря 139 м.

В архиве по умолчанию представлена погода в Белореченске за последнюю неделю. Архивные данные за месяц целиком и за предыдущие месяцы, начиная с января 2011 года, Вы можете получить, выбрав интересующий диапазон дат из раскрывающегося списка и нажав кнопку "Ввод!".


*Определитесь, кто Вы:
робот инопланетянин человек

Внимание! Время в таблицах - всемирное. Для получения местного времени необходимо прибавить поправку, которая равна 3 ч.

Смотрите также архив погоды в соседних городах и на ближайших метеорологических станциях:

Погода в Майкопе (Адыгея, Россия) (20 км)
Погода в Шунтуке (Адыгея, Россия) (36 км)
Погода в Дондуковской (Адыгея, Россия) (38 км)
Погода в Усть-Лабинске (Краснодарский край, Россия) (55 км)
Погода в Горячем Ключе (Краснодарский край, Россия) (65 км)
Погода в Лабинске (Краснодарский край, Россия) (68 км)
Погода в Даховской (Адыгея, Россия) (68 км)
Погода в Горном (Краснодарский край, Россия) (72 км)
Погода в Краснодаре (Краснодарский край, Россия) (76 км)
Погода в Гузерипле (Адыгея, Россия) (85 км)

Пояснения к столбцам:

Ветер - указаны скорость ветра в м/с - средняя за 10 мин, порывы в срок и между сроками (в фигурных скобках) и направление, откуда дует ветер: С - северный, СВ - северо-восточный, В - восточный, ЮВ - юго-восточный, Ю - южный, ЮЗ - юго-западный, З - западный, СЗ - северо-западный.
Видимость - горизонтальная дальность видимости в метрах или километрах. При видимости от 1 до 10 км при отсутствии осадков обычно наблюдается дымка, при ухудшении видимости до 1 км и менее - туман. В сухую погоду видимость может ухудшаться дымом, пылью или мглою.
Явления - указаны атмосферные явления, наблюдавшиеся в срок или в последний час перед сроком; фигурными скобками обозначены явления, наблюдавшиеся между сроками (за 1-3 часа до срока); квадратными скобками обозначены град или гололедные отложения с указанием их диаметра в мм.
Облачность - указаны через наклонную черту общая и нижняя облачность в баллах и высота нижней границы облаков в метрах; квадратными скобками обозначены формы облаков: Ci - перистые, Cs - перисто-слоистые, Cc - перисто-кучевые, Ac - высококучевые, As - высокослоистые, Sc - слоисто-кучевые, Ns - слоисто-дождевые, Cu - кучевые, Cb - кучево-дождевые. Подробнее классификацию облаков см. в Атласе облаков (PDF).
T - Температура воздуха - температура, измеренная на высоте 2 м над землей.
Td - Температура точки росы - температура, при понижении до которой содержащийся в воздухе водяной пар достигнет насыщения.
f - Относительная влажность воздуха - влажноcть воздуха, измеренная на высоте 2 м над землей.
Te - Эффективная температура - температура, которую ощущает одетый по сезону человек в тени. Характеристика душности погоды. При расчете учитывается влияние влажности воздуха и скорости ветра на теплоощущения человека.
Tes - Эффективная температура на солнце - температура, которую ощущает человек, с поправкой на солнечный нагрев. Характеристика знойности погоды. Зависит от высоты солнца над горизонтом, облачности и скорости ветра. Ночью, в пасмурную погоду, а также при ветре 12 м/с и более поправка равна нулю.
P - Атмосферное давление - приведенное к уровню моря атмосферное давление.
Po - Атмосферное давление - измеренное на уровне метеостанции атмосферное давление.
Tmin - Минимальная температура - минимум температуры воздуха на высоте 2 м над землей.
Tmax - Максимальная температура - максимум температуры воздуха на высоте 2 м над землей.
R - Количество осадков - Количество выпавших осадков за период времени, мм. При наведении курсора мыши на число - период времени, за который выпало указанное количество осадков.
R24 - Количество осадков - Количество выпавших осадков за 24 часа, мм.
S - Снежный покров - Высота снежного покрова, см. При наведении курсора мыши на число - состояние снежного покрова и степень покрытия местности в баллах.